DECAYED

OBJECT F, 58261 (Decayed)

Orbit data source: Space-Track

You're viewing an uncataloged RSO

Recently launched and/or uncataloged RSOs may have evolving metadata. Metadata may include the following, but is not limited to: Owner, Manufacturer, Bus, Motor, and Mission.

OBJECT F, 58261 was a satellite in LEO that was launched on Sat, 11 Nov 2023 UTC via an FALCON 9 launch vehicle from the Air Force Western Test Range (AFWTR). Unknown objects in Earth's orbit typically refer to objects detected orbiting the Earth but have not yet been identified or cataloged. These objects could be anything from previously untracked satellites, spent rocket stages, debris from satellite collisions, or even natural meteoroids temporarily captured by Earth's gravity. This object's orbit decayed before it could be identified.

Not visible in the next 10 days
Identifier
58261, 2023-174F
Orbit
Decayed
Country
Flag of TBDTBD
Related business
Manufacturer
SpaceManic
Mission
Decayed Amateur Imaging
Bus & Motor
CUBESAT 1U, Unknown motor
Mass
1 kg wet, 1 kg dry
Launch date (UTC)
2023-11-11 (3 years ago)
Launch vehicle
FALCON 9
Launch site
Air Force Western Test Range (AFWTR)
Object type
Unknown
Shape & HBR
Box, 0.1 m
Radar Cross Section
0.015 m², Medium (>0.1 m² and < 1m²)

Expand to show TLE details & history
Last TLE update: 1 year ago

TLE from 1 year ago
0 OBJECT F
1 58261U 23174F   25226.74650706  .09886468  25425-5  70553-3 0  9996
2 58261  97.3922 318.3866 0015160 267.1721  92.7843 16.39664098 99160
Epoch: 2025-08-14T17:54Z
TLE epoch observation values (Epoch: 2025-08-14T17:54:58.209Z)
Latitude
-0.00008°
Longitude
86.23805°
Altitude
170.444 km
Speed
7.804 km/s
True Right ascension
21h 13m 32s
True Declination
0° 00' 00"
Sunlit
Object was in full shadow at epoch
Visualization orbit readout
Latitude
Unknown
Longitude
Unknown
Altitude
Unknown
Speed
Unknown
Apparent Right ascension
Unknown
Apparent Declination
Unknown
Sunlit
N/A
Visualization observer readout
Local Sidereal Time
19:32:29
Azimuth
Unknown
Elevation
Unknown
Doppler factor
Unknown
Orbital elements
Apogee altitude
173.421 km
Perigee altitude
153.587 km
Semi-major axis
6,541.641 km
Eccentricity
0.00152
Inclination
97.3922°
RAAN
318.3866°
Arg. of periapsis
267.1721°
True anomaly
92.9578°
Mean anomaly
92.7843°
Eccentric anomaly
92.87105°
Mean motion
4.10216 °/min
Orbital period
87.76 mins
BSTAR
0.00070553
Loading maneuver chart data...
Computing Atmospheric mass density...
Loading historical data...
Loading historical data...
Loading historical data...
Loading historical data...
Loading historical data...
Loading historical data...
Loading historical data...

Documentation

Showing up to 5 results
|